Regional Weather Roundup
Issued by NWS

Home | Current Version | Previous Version | Graphics & Text | Print | Product List | Glossary On
Versions: 1 2 3 4 5 6 7 8 9 10 11 12 13 14 15 16 17 18 19 20 21 22 23 24 25 26 27 28 29 30 31 32 33 34 35 36 37 38 39 40 41 42 43 44 45 46 47 48 49 50
000
ASUS43 KBIS 211410
RWRND

NORTH DAKOTA REGIONAL WEATHER ROUNDUP
NATIONAL WEATHER SERVICE BISMARCK ND
800 AM CST TUE NOV 21 2017

NOTE: "FAIR" INDICATES FEW OR NO CLOUDS BELOW 12,000 FEET WITH NO
SIGNIFICANT WEATHER AND/OR OBSTRUCTIONS TO VISIBILITY.


NDZ001>003-009>011-017-211500-
NORTHWEST NORTH DAKOTA

CITY           SKY/WX    TMP DP  RH WIND       PRES   REMARKS
WILLISTON      CLOUDY     5  -2  72 W14       30.37R WCI -12
MINOT          CLOUDY     7   1  76 W16       30.28R WCI -11
MINOT AFB      CLOUDY     7   1  77 NW17      30.27R WCI -12
$$

NDZ018>021-031>035-040>046-211500-
SOUTHWEST NORTH DAKOTA

CITY           SKY/WX    TMP DP  RH WIND       PRES   REMARKS
BISMARCK       CLOUDY    16   5  62 NW20G30   30.30R WCI  -1
DICKINSON      CLOUDY     3  -2  79 NW14      30.25R WCI -15
GARRISON         N/A      5   0  79 NW15G25   30.29R WCI -13
HETTINGER ARPT CLOUDY     5  -2  72 NW10      30.28R WCI -10
$$

NDZ004>008-012>016-024-026-027-054-211500-
NORTHEAST NORTH DAKOTA

CITY           SKY/WX    TMP DP  RH WIND       PRES   REMARKS
GRAND FORKS    PTCLDY    12   7  80 NW22G29   30.16R WCI  -7
GRND FRKS AFB  PTCLDY    11   4  73 N17       30.16R WCI  -6
DEVILS LAKE    CLEAR     10   5  80 NW15      30.20  WCI  -7
$$

NDZ022-023-025-028>030-036>039-047>053-211500-
SOUTHEAST NORTH DAKOTA

CITY           SKY/WX    TMP DP  RH WIND       PRES   REMARKS
FARGO          CLOUDY    16   9  74 NW23G32   30.14R WCI  -2
JAMESTOWN      CLEAR     11   6  81 NW23      30.18R WCI  -9
$$





USA.gov is the U.S. government's official web portal to all federal, state and local government web resources and services.